Home > Weather > Antioch > Past weeks

Flag for USA Past Weather in Antioch, California, USA — Yesterday and Last 2 Weeks

Now
76 °F

Sunny.


Feels Like: 78 °F
Forecast: 60 / 93 °F
Wind: 9 mph from Northwest

Location: Buchanan Field

Current Time: Jul 1, 2016 at 12:06:13 PM

Latest Report: Jul 1, 2016 at 10:53 AM


Visibility: 10 mi

Pressure: 29.80 "Hg

Humidity: 43%

Dew Point: 52 °F

Location of AntiochLocation

Past Weather in Antioch — Graph

°F

Antioch Temperature Yesterday

Maximum temperature yesterday: 93 °F (at 3:53 PM)
Minimum temperature yesterday: 59 °F (at 1:53 AM)
Average temperature yesterday: 75 °F

High & Low Weather Summary for the Past Weeks

 TemperatureHumidityPressure
High101 °F (Jun 27, 3:53 PM)81% (Jun 24, 5:53 AM)30.15 "Hg (Jun 24, 5:53 AM)
Low56 °F (Jun 19, 5:53 AM)8% (Jun 20, 3:53 PM)29.71 "Hg (Jun 30, 6:53 PM)
Average74 °F43%29.93 "Hg
* Reported Jun 16 10:53 AM — Jul 1 10:53 AM, Antioch, Weather by CustomWeather, © 2016

Note: Actual official high and low records may vary slightly from our data, if they occured in-between our weather recording intervals... More about our weather records

Advertising

Antioch Weather History for the Previous 24 Hours

Scroll right to see more
 ConditionsComfort  
Time TempWeatherWind HumidityBarometerVisibility
10:53 AM
Fri, Jul 1
76 °FSunny.9 mph43%29.80 "Hg10 mi
9:53 AM73 °FLight rain. Sunny.9 mph48%29.80 "Hg10 mi
8:53 AM71 °FSunny.5 mph53%29.80 "Hg9 mi
7:53 AM67 °FSunny.5 mph59%29.79 "Hg8 mi
6:53 AM62 °FSunny.6 mph70%29.77 "Hg7 mi
5:53 AM60 °FClear.3 mph72%29.76 "Hg7 mi
4:53 AM60 °FClear.5 mph72%29.75 "Hg8 mi
3:53 AM63 °FClear.3 mph65%29.73 "Hg10 mi
2:53 AM61 °FClear.3 mph70%29.73 "Hg8 mi
1:53 AM63 °FClear.6 mph65%29.73 "Hg9 mi
12:53 AM64 °FClear.6 mph65%29.73 "Hg9 mi
11:53 PM
Thu, Jun 30
64 °FClear.5 mph65%29.74 "Hg9 mi
10:53 PM73 °FClear.12 mph41%29.74 "Hg10 mi
9:53 PM76 °FClear.14 mph39%29.73 "Hg10 mi
8:53 PM84 °FSunny.9 mph29%29.71 "Hg10 mi
7:53 PM87 °FSunny.7 mph25%29.72 "Hg10 mi
6:53 PM90 °FSunny.10 mph24%29.71 "Hg10 mi
5:53 PM92 °FSunny.13 mph26%29.72 "Hg10 mi
4:53 PM92 °FSunny.17 mph27%29.73 "Hg10 mi
3:53 PM93 °FSunny.17 mph25%29.74 "Hg10 mi
2:53 PM90 °FSunny.16 mph27%29.76 "Hg10 mi
1:53 PM85 °FSunny.13 mph32%29.78 "Hg10 mi
12:53 PM82 °FSunny.13 mph35%29.80 "Hg10 mi
Weather by CustomWeather, © 2016

See weather overviewHow to use our weather pages